Time,TemperatureF,DewpointF,PressureIn,WindDirection,WindDirectionDegrees,WindSpeedMPH,WindSpeedGustMPH,Humidity,HourlyPrecipIn,Conditions,Clouds,dailyrainin,SolarRadiationWatts/m^2,SoftwareType,DateUTC
2013-02-24 00:02:00,36.8,26.9,29.57,NW,307,13.0,15.0,67,0.00,,SCT110,0.00,0.00,VWS V14.01,2013-02-24 07:02:00,
2013-02-24 00:07:00,36.7,27.1,29.57,WNW,300,6.0,15.0,68,0.00,,SCT110,0.00,0.00,VWS V14.01,2013-02-24 07:07:00,
2013-02-24 00:12:00,36.5,27.0,29.57,WNW,292,9.0,15.0,68,0.00,,SCT110,0.00,0.00,VWS V14.01,2013-02-24 07:12:00,
2013-02-24 00:17:00,36.3,27.1,29.58,WNW,291,6.0,14.0,69,0.00,,SCT110,0.00,0.00,VWS V14.01,2013-02-24 07:17:00,
2013-02-24 00:22:00,36.1,27.3,29.58,West,279,12.0,16.0,70,0.00,,SCT110,0.00,0.00,VWS V14.01,2013-02-24 07:22:00,
2013-02-24 00:27:00,35.9,27.4,29.58,WNW,300,12.0,17.0,71,0.00,,SCT110,0.00,0.00,VWS V14.01,2013-02-24 07:27:00,
2013-02-24 00:32:00,35.7,27.6,29.58,WNW,294,10.0,16.0,72,0.00,,SCT110,0.00,0.00,VWS V14.01,2013-02-24 07:32:00,
2013-02-24 00:38:00,35.4,27.6,29.58,West,273,7.0,16.0,73,0.00,,SCT110,0.00,0.00,VWS V14.01,2013-02-24 07:38:00,
2013-02-24 00:43:00,35.2,27.8,29.58,WNW,282,15.0,16.0,74,0.00,,SCT110,0.00,0.00,VWS V14.01,2013-02-24 07:43:00,
2013-02-24 00:48:00,35.0,27.9,29.58,West,280,6.0,10.0,75,0.00,,SCT110,0.00,0.00,VWS V14.01,2013-02-24 07:48:00,
2013-02-24 00:53:00,34.9,27.8,29.58,WNW,299,6.0,15.0,75,0.00,,SCT110,0.00,0.00,VWS V14.01,2013-02-24 07:53:00,
2013-02-24 00:58:00,34.9,28.1,29.58,NW,304,7.0,15.0,76,0.00,,SCT110,0.00,0.00,VWS V14.01,2013-02-24 07:58:00,
2013-02-24 01:03:00,35.0,28.2,29.58,West,267,5.0,10.0,76,0.00,,OVC050,0.00,0.00,VWS V14.01,2013-02-24 08:03:00,
2013-02-24 01:08:00,35.1,28.3,29.58,WNW,300,8.0,10.0,76,0.00,,OVC050,0.00,0.00,VWS V14.01,2013-02-24 08:08:00,
2013-02-24 01:13:00,35.1,28.3,29.58,WNW,298,8.0,11.0,76,0.00,,OVC050,0.00,0.00,VWS V14.01,2013-02-24 08:13:00,
2013-02-24 01:18:00,35.1,28.3,29.58,WNW,298,6.0,9.0,76,0.00,,OVC050,0.00,0.00,VWS V14.01,2013-02-24 08:18:00,
2013-02-24 01:23:00,35.2,28.4,29.58,NW,304,7.0,11.0,76,0.00,,OVC050,0.00,0.00,VWS V14.01,2013-02-24 08:23:00,
2013-02-24 01:28:00,35.3,28.2,29.58,NW,304,7.0,11.0,75,0.00,,OVC050,0.00,0.00,VWS V14.01,2013-02-24 08:28:00,
2013-02-24 01:33:00,35.3,28.2,29.58,NW,313,11.0,11.0,75,0.00,,OVC050,0.00,0.00,VWS V14.01,2013-02-24 08:33:00,
2013-02-24 01:38:00,35.2,28.1,29.58,WNW,296,4.0,12.0,75,0.00,,OVC050,0.00,0.00,VWS V14.01,2013-02-24 08:38:00,
2013-02-24 01:43:00,35.2,28.1,29.58,WNW,296,6.0,12.0,75,0.00,,OVC050,0.00,0.00,VWS V14.01,2013-02-24 08:43:00,
2013-02-24 01:48:00,35.1,28.0,29.58,WNW,302,6.0,9.0,75,0.00,,OVC050,0.00,0.00,VWS V14.01,2013-02-24 08:48:00,
2013-02-24 01:53:00,35.1,28.0,29.59,NW,323,8.0,10.0,75,0.00,,OVC050,0.00,0.00,VWS V14.01,2013-02-24 08:53:00,
2013-02-24 01:58:00,35.0,27.9,29.59,NW,313,6.0,10.0,75,0.00,,OVC050,0.00,0.00,VWS V14.01,2013-02-24 08:58:00,
2013-02-24 02:03:00,34.9,27.8,29.59,NNW,337,5.0,6.0,75,0.00,,OVC042,0.00,0.00,VWS V14.01,2013-02-24 09:03:00,
2013-02-24 02:08:00,34.8,27.7,29.59,NW,315,3.0,11.0,75,0.00,,OVC042,0.00,0.00,VWS V14.01,2013-02-24 09:08:00,
2013-02-24 02:13:00,34.7,27.6,29.59,NW,325,7.0,12.0,75,0.00,,OVC042,0.00,0.00,VWS V14.01,2013-02-24 09:13:00,
2013-02-24 02:18:00,34.5,27.4,29.60,NNW,340,6.0,9.0,75,0.00,,OVC042,0.00,0.00,VWS V14.01,2013-02-24 09:18:00,
2013-02-24 02:23:00,34.4,27.3,29.60,North,355,4.0,10.0,75,0.00,,OVC042,0.00,0.00,VWS V14.01,2013-02-24 09:23:00,
2013-02-24 02:28:00,33.9,27.1,29.60,NNW,348,7.0,10.0,76,0.00,,OVC042,0.00,0.00,VWS V14.01,2013-02-24 09:28:00,
2013-02-24 02:33:00,33.7,27.3,29.60,North,10,4.0,6.0,77,0.00,,OVC042,0.00,0.00,VWS V14.01,2013-02-24 09:33:00,
2013-02-24 02:38:00,33.5,27.1,29.61,NNE,24,5.0,6.0,77,0.00,,OVC042,0.00,0.00,VWS V14.01,2013-02-24 09:38:00,
2013-02-24 02:43:00,33.4,27.3,29.61,NNE,20,5.0,9.0,78,0.00,,OVC042,0.00,0.00,VWS V14.01,2013-02-24 09:43:00,
2013-02-24 02:48:00,33.2,27.4,29.61,NNE,13,4.0,8.0,79,0.00,,OVC042,0.00,0.00,VWS V14.01,2013-02-24 09:48:00,
2013-02-24 02:53:00,33.0,27.5,29.61,NE,51,7.0,8.0,80,0.00,,OVC042,0.00,0.00,VWS V14.01,2013-02-24 09:53:00,
2013-02-24 02:58:00,32.8,27.6,29.61,NNE,30,4.0,8.0,81,0.00,,OVC042,0.00,0.00,VWS V14.01,2013-02-24 09:58:00,
2013-02-24 03:03:00,32.6,27.7,29.62,NE,41,5.0,7.0,82,0.00,,OVC095,0.00,0.00,VWS V14.01,2013-02-24 10:03:00,
2013-02-24 03:08:00,32.5,27.9,29.62,NNE,28,5.0,7.0,83,0.00,,OVC095,0.00,0.00,VWS V14.01,2013-02-24 10:08:00,
2013-02-24 03:13:00,32.3,27.7,29.63,NE,49,3.0,7.0,83,0.00,,OVC095,0.00,0.00,VWS V14.01,2013-02-24 10:13:00,
2013-02-24 03:18:00,32.2,27.9,29.63,NE,36,5.0,6.0,84,0.00,,OVC095,0.00,0.00,VWS V14.01,2013-02-24 10:18:00,
2013-02-24 03:23:00,32.1,27.8,29.64,NE,42,5.0,6.0,84,0.00,,OVC095,0.00,0.00,VWS V14.01,2013-02-24 10:23:00,
2013-02-24 03:28:00,32.0,28.0,29.64,NNE,19,4.0,7.0,85,0.00,,OVC095,0.00,0.00,VWS V14.01,2013-02-24 10:28:00,
2013-02-24 03:33:00,31.9,27.9,29.64,NNE,24,5.0,6.0,85,0.00,,OVC095,0.00,0.00,VWS V14.01,2013-02-24 10:33:00,
2013-02-24 03:38:00,31.8,28.1,29.64,NE,35,3.0,6.0,86,0.00,,OVC095,0.00,0.00,VWS V14.01,2013-02-24 10:38:00,
2013-02-24 03:43:00,31.8,28.1,29.64,NNE,26,5.0,7.0,86,0.00,,OVC095,0.00,0.00,VWS V14.01,2013-02-24 10:43:00,
2013-02-24 03:48:00,31.7,28.3,29.64,NNE,24,5.0,8.0,87,0.00,,OVC095,0.00,0.00,VWS V14.01,2013-02-24 10:48:00,
2013-02-24 03:54:00,31.6,28.2,29.64,NE,51,5.0,9.0,87,0.00,,OVC095,0.00,0.00,VWS V14.01,2013-02-24 10:54:00,
2013-02-24 03:59:00,31.4,28.0,29.65,NE,37,4.0,11.0,87,0.00,,OVC095,0.00,0.00,VWS V14.01,2013-02-24 10:59:00,
2013-02-24 04:04:00,31.3,27.9,29.66,ENE,64,6.0,9.0,87,0.00,,,0.00,0.00,VWS V14.01,2013-02-24 11:04:00,
2013-02-24 04:09:00,31.2,28.1,29.66,NE,53,5.0,9.0,88,0.00,,,0.00,0.00,VWS V14.01,2013-02-24 11:09:00,
2013-02-24 04:14:00,31.2,28.1,29.66,NE,51,3.0,9.0,88,0.00,,,0.00,0.00,VWS V14.01,2013-02-24 11:14:00,
2013-02-24 04:19:00,31.2,28.1,29.67,NE,46,4.0,5.0,88,0.00,,,0.00,0.00,VWS V14.01,2013-02-24 11:19:00,
2013-02-24 04:24:00,31.2,28.3,29.67,ENE,59,2.0,5.0,89,0.00,,,0.00,0.00,VWS V14.01,2013-02-24 11:24:00,
2013-02-24 04:29:00,31.2,28.3,29.67,NNE,28,5.0,6.0,89,0.00,,,0.00,0.00,VWS V14.01,2013-02-24 11:29:00,
2013-02-24 04:34:00,31.2,28.3,29.67,ENE,59,4.0,7.0,89,0.00,,,0.00,0.00,VWS V14.01,2013-02-24 11:34:00,
2013-02-24 04:39:00,31.1,28.2,29.68,NE,44,7.0,9.0,89,0.00,,,0.00,0.00,VWS V14.01,2013-02-24 11:39:00,
2013-02-24 04:44:00,31.0,28.1,29.68,ENE,74,9.0,10.0,89,0.00,,,0.00,0.00,VWS V14.01,2013-02-24 11:44:00,
2013-02-24 04:49:00,30.8,28.0,29.68,NE,36,6.0,10.0,89,0.00,,,0.00,0.00,VWS V14.01,2013-02-24 11:49:00,
2013-02-24 04:54:00,30.8,28.0,29.68,ENE,61,6.0,10.0,89,0.00,,,0.00,0.00,VWS V14.01,2013-02-24 11:54:00,
2013-02-24 04:59:00,30.7,28.1,29.69,ENE,65,6.0,13.0,90,0.00,,,0.00,0.00,VWS V14.01,2013-02-24 11:59:00,
2013-02-24 05:04:00,30.6,28.0,29.69,ENE,57,10.0,11.0,90,0.00,,,0.00,0.00,VWS V14.01,2013-02-24 12:04:00,
2013-02-24 05:09:00,30.2,27.6,29.70,NNE,30,11.0,15.0,90,0.00,,,0.00,0.00,VWS V14.01,2013-02-24 12:09:00,
2013-02-24 05:14:00,29.8,27.2,29.71,NNE,32,11.0,17.0,90,0.00,,,0.00,0.00,VWS V14.01,2013-02-24 12:14:00,
2013-02-24 05:19:00,29.6,27.0,29.71,NNE,24,10.0,13.0,90,0.00,,,0.00,0.00,VWS V14.01,2013-02-24 12:19:00,
2013-02-24 05:24:00,29.6,27.0,29.71,North,9,9.0,15.0,90,0.00,,,0.00,0.00,VWS V14.01,2013-02-24 12:24:00,
2013-02-24 05:29:00,29.4,26.8,29.72,NE,45,9.0,15.0,90,0.00,,,0.00,0.00,VWS V14.01,2013-02-24 12:29:00,
2013-02-24 05:34:00,29.3,26.7,29.72,NE,37,9.0,14.0,90,0.00,,,0.00,0.00,VWS V14.01,2013-02-24 12:34:00,
2013-02-24 05:39:00,29.0,26.4,29.72,NNE,30,11.0,16.0,90,0.00,,,0.00,0.00,VWS V14.01,2013-02-24 12:39:00,
2013-02-24 05:44:00,28.9,26.3,29.73,NE,46,7.0,16.0,90,0.00,,,0.00,0.00,VWS V14.01,2013-02-24 12:44:00,
2013-02-24 05:49:00,28.8,26.2,29.73,NE,42,9.0,12.0,90,0.00,,,0.00,0.00,VWS V14.01,2013-02-24 12:49:00,
2013-02-24 05:54:00,28.7,26.1,29.73,NE,44,10.0,15.0,90,0.00,,,0.00,0.00,VWS V14.01,2013-02-24 12:54:00,
2013-02-24 05:59:00,28.5,26.0,29.73,NNE,25,9.0,15.0,90,0.00,,,0.00,0.00,VWS V14.01,2013-02-24 12:59:00,
2013-02-24 06:04:00,28.6,26.3,29.74,NNE,24,10.0,11.0,91,0.00,,,0.00,0.00,VWS V14.01,2013-02-24 13:04:00,
2013-02-24 06:09:00,28.5,26.2,29.75,NE,46,8.0,11.0,91,0.00,,,0.00,0.00,VWS V14.01,2013-02-24 13:09:00,
2013-02-24 06:14:00,28.5,26.2,29.75,North,5,7.0,12.0,91,0.00,,,0.00,0.00,VWS V14.01,2013-02-24 13:14:00,
2013-02-24 06:19:00,28.5,26.2,29.75,NE,34,5.0,12.0,91,0.00,,,0.00,0.00,VWS V14.01,2013-02-24 13:19:00,
2013-02-24 06:25:00,28.5,26.2,29.75,North,11,10.0,13.0,91,0.00,,,0.00,0.00,VWS V14.01,2013-02-24 13:25:00,
2013-02-24 06:30:00,28.4,26.1,29.75,NNE,21,6.0,13.0,91,0.00,,,0.00,0.00,VWS V14.01,2013-02-24 13:30:00,
2013-02-24 06:35:00,28.4,26.1,29.76,NNE,22,9.0,13.0,91,0.00,,,0.00,0.00,VWS V14.01,2013-02-24 13:35:00,
2013-02-24 06:40:00,28.3,26.0,29.76,NNE,29,6.0,13.0,91,0.00,,,0.00,0.00,VWS V14.01,2013-02-24 13:40:00,
2013-02-24 06:45:00,28.3,26.0,29.76,NNE,14,5.0,13.0,91,0.00,,,0.00,0.00,VWS V14.01,2013-02-24 13:45:00,
2013-02-24 06:50:00,28.3,26.0,29.77,North,355,6.0,9.0,91,0.00,,,0.00,0.00,VWS V14.01,2013-02-24 13:50:00,
2013-02-24 06:55:00,28.3,26.0,29.77,North,355,5.0,10.0,91,0.00,,,0.00,7.00,VWS V14.01,2013-02-24 13:55:00,
2013-02-24 07:00:00,28.2,25.9,29.78,NNE,16,6.0,11.0,91,0.00,,,0.00,11.00,VWS V14.01,2013-02-24 14:00:00,
2013-02-24 07:05:00,28.2,25.9,29.79,North,360,9.0,12.0,91,0.00,,,0.00,16.00,VWS V14.01,2013-02-24 14:05:00,
2013-02-24 07:10:00,28.1,25.8,29.79,North,11,6.0,13.0,91,0.00,,,0.00,19.00,VWS V14.01,2013-02-24 14:10:00,
2013-02-24 07:15:00,28.1,25.8,29.79,NNW,344,8.0,13.0,91,0.00,,,0.00,23.00,VWS V14.01,2013-02-24 14:15:00,
2013-02-24 07:20:00,28.1,25.8,29.79,North,355,6.0,10.0,91,0.00,,,0.00,30.00,VWS V14.01,2013-02-24 14:20:00,
2013-02-24 07:25:00,28.2,25.9,29.80,NNW,342,3.0,10.0,91,0.00,,,0.00,40.00,VWS V14.01,2013-02-24 14:25:00,
2013-02-24 07:30:00,28.2,25.9,29.80,NW,322,6.0,10.0,91,0.00,,,0.00,49.00,VWS V14.01,2013-02-24 14:30:00,
2013-02-24 07:35:00,28.3,26.0,29.81,NNW,342,7.0,10.0,91,0.00,,,0.00,54.00,VWS V14.01,2013-02-24 14:35:00,
2013-02-24 07:40:00,28.3,26.0,29.81,NNW,346,9.0,10.0,91,0.00,,,0.00,63.00,VWS V14.01,2013-02-24 14:40:00,
2013-02-24 07:45:00,28.4,26.1,29.81,NW,318,7.0,12.0,91,0.00,,,0.00,69.00,VWS V14.01,2013-02-24 14:45:00,
2013-02-24 07:50:00,28.5,26.2,29.80,NW,317,5.0,10.0,91,0.00,,,0.00,74.00,VWS V14.01,2013-02-24 14:50:00,
2013-02-24 07:55:00,28.6,26.3,29.81,NNW,348,10.0,10.0,91,0.00,,,0.00,77.00,VWS V14.01,2013-02-24 14:55:00,
2013-02-24 08:00:00,28.6,26.3,29.81,NNW,331,4.0,11.0,91,0.00,,OVC030,0.00,84.00,VWS V14.01,2013-02-24 15:00:00,
2013-02-24 08:05:00,28.6,26.3,29.82,North,350,6.0,12.0,91,0.00,,OVC030,0.00,91.00,VWS V14.01,2013-02-24 15:05:00,
2013-02-24 08:10:00,28.6,26.3,29.82,NNW,341,10.0,12.0,91,0.00,,OVC030,0.00,95.00,VWS V14.01,2013-02-24 15:10:00,
2013-02-24 08:16:00,28.5,26.2,29.82,NNW,331,11.0,14.0,91,0.00,,OVC030,0.00,100.00,VWS V14.01,2013-02-24 15:16:00,
2013-02-24 08:21:00,28.7,26.4,29.83,NNW,331,7.0,12.0,91,0.00,,OVC030,0.00,102.00,VWS V14.01,2013-02-24 15:21:00,
2013-02-24 08:26:00,28.7,26.4,29.83,North,5,6.0,12.0,91,0.00,,OVC030,0.00,102.00,VWS V14.01,2013-02-24 15:26:00,
2013-02-24 08:31:00,28.8,26.5,29.83,NW,323,10.0,12.0,91,0.00,,OVC030,0.00,104.00,VWS V14.01,2013-02-24 15:31:00,
2013-02-24 08:36:00,28.9,26.6,29.83,NNW,338,9.0,11.0,91,0.00,,OVC030,0.00,105.00,VWS V14.01,2013-02-24 15:36:00,
2013-02-24 08:41:00,29.0,26.7,29.83,NNW,340,10.0,12.0,91,0.00,,OVC030,0.00,107.00,VWS V14.01,2013-02-24 15:41:00,
2013-02-24 08:46:00,29.1,26.8,29.83,NNW,342,4.0,12.0,91,0.00,,OVC030,0.00,109.00,VWS V14.01,2013-02-24 15:46:00,
2013-02-24 08:51:00,29.2,26.9,29.83,NNW,334,11.0,13.0,91,0.00,,OVC030,0.00,116.00,VWS V14.01,2013-02-24 15:51:00,
2013-02-24 08:56:00,29.3,27.0,29.83,NNW,348,12.0,14.0,91,0.00,,OVC030,0.00,123.00,VWS V14.01,2013-02-24 15:56:00,
2013-02-24 09:01:00,29.4,27.1,29.83,North,355,14.0,14.0,91,0.00,,,0.00,127.00,VWS V14.01,2013-02-24 16:01:00,
2013-02-24 09:06:00,29.5,27.2,29.84,North,350,13.0,15.0,91,0.00,,,0.00,130.00,VWS V14.01,2013-02-24 16:06:00,
2013-02-24 09:11:00,29.6,27.3,29.84,North,360,7.0,16.0,91,0.00,,,0.00,132.00,VWS V14.01,2013-02-24 16:11:00,
2013-02-24 09:16:00,29.8,27.5,29.84,North,360,11.0,11.0,91,0.00,,,0.00,135.00,VWS V14.01,2013-02-24 16:16:00,
2013-02-24 09:21:00,29.8,27.5,29.84,North,360,5.0,14.0,91,0.00,,,0.00,141.00,VWS V14.01,2013-02-24 16:21:00,
2013-02-24 09:26:00,29.8,27.5,29.85,NNE,19,9.0,14.0,91,0.00,,,0.00,155.00,VWS V14.01,2013-02-24 16:26:00,
2013-02-24 09:31:00,29.9,27.6,29.85,NNE,22,7.0,10.0,91,0.00,,,0.00,163.00,VWS V14.01,2013-02-24 16:31:00,
2013-02-24 09:36:00,29.9,27.6,29.85,NNE,17,6.0,13.0,91,0.00,,,0.00,174.00,VWS V14.01,2013-02-24 16:36:00,
2013-02-24 09:41:00,29.9,27.6,29.85,North,350,12.0,14.0,91,0.00,,,0.00,181.00,VWS V14.01,2013-02-24 16:41:00,
2013-02-24 09:46:00,29.9,27.6,29.85,NNE,17,13.0,13.0,91,0.00,,,0.00,190.00,VWS V14.01,2013-02-24 16:46:00,
2013-02-24 09:51:00,30.1,27.8,29.86,NNE,14,10.0,13.0,91,0.00,,,0.00,192.00,VWS V14.01,2013-02-24 16:51:00,
2013-02-24 09:56:00,30.2,27.9,29.86,NE,34,10.0,13.0,91,0.00,,,0.00,193.00,VWS V14.01,2013-02-24 16:56:00,
2013-02-24 10:01:00,30.2,27.9,29.87,NNE,19,6.0,11.0,91,0.00,,,0.00,192.00,VWS V14.01,2013-02-24 17:01:00,
2013-02-24 10:06:00,30.3,27.7,29.88,North,360,6.0,12.0,90,0.00,,,0.00,185.00,VWS V14.01,2013-02-24 17:06:00,
2013-02-24 10:11:00,30.3,27.7,29.88,NNE,18,11.0,14.0,90,0.00,,,0.00,188.00,VWS V14.01,2013-02-24 17:11:00,
2013-02-24 10:16:00,30.4,27.8,29.88,NNE,15,10.0,11.0,90,0.00,,,0.00,192.00,VWS V14.01,2013-02-24 17:16:00,
2013-02-24 10:21:00,30.3,27.7,29.88,North,360,14.0,19.0,90,0.00,,,0.00,204.00,VWS V14.01,2013-02-24 17:21:00,
2013-02-24 10:26:00,30.3,27.7,29.88,North,11,14.0,19.0,90,0.00,,,0.00,207.00,VWS V14.01,2013-02-24 17:26:00,
2013-02-24 10:31:00,30.4,27.8,29.88,NNE,27,7.0,12.0,90,0.00,,,0.00,223.00,VWS V14.01,2013-02-24 17:31:00,
2013-02-24 10:36:00,30.6,28.0,29.88,NE,48,13.0,13.0,90,0.00,,,0.00,223.00,VWS V14.01,2013-02-24 17:36:00,
2013-02-24 10:41:00,30.6,27.8,29.88,NNE,25,12.0,17.0,89,0.00,,,0.00,221.00,VWS V14.01,2013-02-24 17:41:00,
2013-02-24 10:46:00,30.6,27.8,29.88,NNE,23,13.0,13.0,89,0.00,,,0.00,230.00,VWS V14.01,2013-02-24 17:46:00,
2013-02-24 10:51:00,30.7,27.9,29.88,NNE,14,12.0,17.0,89,0.00,,,0.00,243.00,VWS V14.01,2013-02-24 17:51:00,
2013-02-24 10:56:00,30.8,28.0,29.88,NE,46,15.0,18.0,89,0.00,,,0.00,251.00,VWS V14.01,2013-02-24 17:56:00,
2013-02-24 11:01:00,30.9,27.8,29.88,NNE,26,12.0,13.0,88,0.00,,,0.00,271.00,VWS V14.01,2013-02-24 18:01:00,
2013-02-24 11:06:00,31.0,27.9,29.88,NNE,17,14.0,14.0,88,0.00,,,0.00,267.00,VWS V14.01,2013-02-24 18:06:00,
2013-02-24 11:11:00,30.9,27.8,29.88,NE,47,9.0,18.0,88,0.00,,,0.00,274.00,VWS V14.01,2013-02-24 18:11:00,
2013-02-24 11:16:00,31.0,27.9,29.88,NE,38,10.0,16.0,88,0.00,,,0.00,285.00,VWS V14.01,2013-02-24 18:16:00,
2013-02-24 11:22:00,31.1,28.0,29.88,ENE,59,14.0,16.0,88,0.00,,,0.00,306.00,VWS V14.01,2013-02-24 18:22:00,
2013-02-24 11:27:00,31.1,28.0,29.88,NE,39,10.0,17.0,88,0.00,,,0.00,313.00,VWS V14.01,2013-02-24 18:27:00,
2013-02-24 11:32:00,31.1,27.7,29.88,North,360,12.0,13.0,87,0.00,,,0.00,330.00,VWS V14.01,2013-02-24 18:32:00,
2013-02-24 11:37:00,31.3,27.9,29.88,NE,43,10.0,17.0,87,0.00,,,0.00,338.00,VWS V14.01,2013-02-24 18:37:00,
2013-02-24 11:42:00,31.5,28.1,29.88,NNE,18,9.0,17.0,87,0.00,,,0.00,332.00,VWS V14.01,2013-02-24 18:42:00,
2013-02-24 11:47:00,31.7,28.3,29.88,NE,42,15.0,15.0,87,0.00,,,0.00,330.00,VWS V14.01,2013-02-24 18:47:00,
2013-02-24 11:52:00,31.8,28.4,29.88,NE,40,10.0,15.0,87,0.00,,,0.00,276.00,VWS V14.01,2013-02-24 18:52:00,
2013-02-24 11:57:00,31.7,28.0,29.88,NNE,28,13.0,16.0,86,0.00,,,0.00,204.00,VWS V14.01,2013-02-24 18:57:00,
2013-02-24 12:02:00,31.6,27.9,29.89,NNW,337,9.0,12.0,86,0.00,,,0.00,207.00,VWS V14.01,2013-02-24 19:02:00,
2013-02-24 12:07:00,31.4,27.7,29.89,North,11,8.0,16.0,86,0.00,,,0.00,244.00,VWS V14.01,2013-02-24 19:07:00,
2013-02-24 12:12:00,31.3,27.9,29.88,North,351,8.0,16.0,87,0.00,,,0.00,244.00,VWS V14.01,2013-02-24 19:12:00,
2013-02-24 12:17:00,31.2,27.8,29.88,NNE,19,6.0,11.0,87,0.00,,,0.00,239.00,VWS V14.01,2013-02-24 19:17:00,
2013-02-24 12:22:00,31.1,27.7,29.88,NW,325,8.0,15.0,87,0.00,,,0.00,230.00,VWS V14.01,2013-02-24 19:22:00,
2013-02-24 12:27:00,30.9,27.5,29.88,NNW,331,10.0,19.0,87,0.00,,,0.00,253.00,VWS V14.01,2013-02-24 19:27:00,
2013-02-24 12:32:00,31.0,27.6,29.88,NNE,24,12.0,14.0,87,0.00,,,0.00,265.00,VWS V14.01,2013-02-24 19:32:00,
2013-02-24 12:37:00,31.0,27.6,29.88,NNW,340,13.0,18.0,87,0.00,,,0.00,267.00,VWS V14.01,2013-02-24 19:37:00,
2013-02-24 12:42:00,31.0,27.6,29.88,NNW,344,12.0,18.0,87,0.00,,,0.00,306.00,VWS V14.01,2013-02-24 19:42:00,
2013-02-24 12:47:00,31.0,27.6,29.88,NNE,24,13.0,15.0,87,0.00,,,0.00,285.00,VWS V14.01,2013-02-24 19:47:00,
2013-02-24 12:52:00,30.9,27.5,29.88,NNE,14,11.0,17.0,87,0.00,,,0.00,279.00,VWS V14.01,2013-02-24 19:52:00,
2013-02-24 12:57:00,30.8,27.4,29.88,North,355,13.0,17.0,87,0.00,,,0.00,272.00,VWS V14.01,2013-02-24 19:57:00,
2013-02-24 13:02:00,30.8,27.4,29.88,North,355,6.0,14.0,87,0.00,,OVC035,0.00,244.00,VWS V14.01,2013-02-24 20:02:00,
2013-02-24 13:07:00,30.8,27.4,29.88,North,360,11.0,18.0,87,0.00,,OVC035,0.00,304.00,VWS V14.01,2013-02-24 20:07:00,
2013-02-24 13:12:00,31.0,27.6,29.88,NNE,17,14.0,21.0,87,0.00,,OVC035,0.00,332.00,VWS V14.01,2013-02-24 20:12:00,
2013-02-24 13:17:00,31.2,27.8,29.88,NNE,25,13.0,18.0,87,0.00,,OVC035,0.00,323.00,VWS V14.01,2013-02-24 20:17:00,
2013-02-24 13:22:00,31.2,27.5,29.88,NNW,346,15.0,18.0,86,0.00,,OVC035,0.00,292.00,VWS V14.01,2013-02-24 20:22:00,
2013-02-24 13:27:00,31.1,27.4,29.88,North,355,13.0,18.0,86,0.00,,OVC035,0.00,265.00,VWS V14.01,2013-02-24 20:27:00,
2013-02-24 13:32:00,31.1,27.4,29.88,NNW,340,14.0,17.0,86,0.00,,OVC035,0.00,287.00,VWS V14.01,2013-02-24 20:32:00,
2013-02-24 13:37:00,31.2,27.5,29.88,WNW,298,11.0,17.0,86,0.00,,OVC035,0.00,323.00,VWS V14.01,2013-02-24 20:37:00,
2013-02-24 13:42:00,31.2,27.5,29.88,NNW,337,14.0,20.0,86,0.00,,OVC035,0.00,281.00,VWS V14.01,2013-02-24 20:42:00,
2013-02-24 13:47:00,31.3,27.6,29.88,North,355,9.0,16.0,86,0.00,,OVC035,0.00,308.00,VWS V14.01,2013-02-24 20:47:00,
2013-02-24 13:52:00,31.4,27.4,29.88,NNW,336,6.0,18.0,85,0.00,,OVC035,0.00,267.00,VWS V14.01,2013-02-24 20:52:00,
2013-02-24 13:57:00,31.6,27.6,29.88,NNW,336,12.0,18.0,85,0.00,,OVC035,0.00,234.00,VWS V14.01,2013-02-24 20:57:00,
2013-02-24 14:02:00,31.6,27.6,29.89,NNE,13,7.0,13.0,85,0.00,,OVC035,0.00,237.00,VWS V14.01,2013-02-24 21:02:00,
2013-02-24 14:07:00,31.6,27.3,29.89,NNW,344,10.0,15.0,84,0.00,,OVC035,0.00,241.00,VWS V14.01,2013-02-24 21:07:00,
2013-02-24 14:12:00,31.7,27.4,29.89,NNW,336,11.0,18.0,84,0.00,,OVC035,0.00,251.00,VWS V14.01,2013-02-24 21:12:00,
2013-02-24 14:17:00,31.9,27.3,29.89,NW,325,15.0,15.0,83,0.00,,OVC035,0.00,255.00,VWS V14.01,2013-02-24 21:17:00,
2013-02-24 14:22:00,31.9,27.3,29.90,North,351,10.0,22.0,83,0.00,,OVC035,0.00,244.00,VWS V14.01,2013-02-24 21:22:00,
2013-02-24 14:27:00,32.0,27.1,29.90,NNW,332,12.0,22.0,82,0.00,,OVC035,0.00,241.00,VWS V14.01,2013-02-24 21:27:00,
2013-02-24 14:33:00,32.1,26.9,29.89,NNW,338,6.0,16.0,81,0.00,,OVC035,0.00,243.00,VWS V14.01,2013-02-24 21:33:00,
2013-02-24 14:38:00,32.2,27.0,29.90,NNW,346,12.0,17.0,81,0.00,,OVC035,0.00,209.00,VWS V14.01,2013-02-24 21:38:00,
2013-02-24 14:43:00,32.2,26.7,29.90,North,350,9.0,18.0,80,0.00,,OVC035,0.00,179.00,VWS V14.01,2013-02-24 21:43:00,
2013-02-24 14:48:00,32.2,26.7,29.90,NNW,328,15.0,15.0,80,0.00,,OVC035,0.00,178.00,VWS V14.01,2013-02-24 21:48:00,
2013-02-24 14:53:00,32.1,26.3,29.90,North,355,10.0,18.0,79,0.00,,OVC035,0.00,190.00,VWS V14.01,2013-02-24 21:53:00,
2013-02-24 14:58:00,32.1,26.3,29.90,NNW,333,13.0,18.0,79,0.00,,OVC035,0.00,190.00,VWS V14.01,2013-02-24 21:58:00,
2013-02-24 15:03:00,32.2,26.7,29.91,NNW,332,12.0,16.0,80,0.00,,OVC033,0.00,186.00,VWS V14.01,2013-02-24 22:03:00,
2013-02-24 15:08:00,32.1,26.3,29.91,NW,323,16.0,17.0,79,0.00,,OVC033,0.00,185.00,VWS V14.01,2013-02-24 22:08:00,
2013-02-24 15:13:00,32.1,26.3,29.91,NNW,340,12.0,17.0,79,0.00,,OVC033,0.00,181.00,VWS V14.01,2013-02-24 22:13:00,
2013-02-24 15:18:00,32.0,26.2,29.91,North,355,12.0,14.0,79,0.00,,OVC033,0.00,174.00,VWS V14.01,2013-02-24 22:18:00,
2013-02-24 15:23:00,32.0,26.2,29.92,NNW,331,9.0,15.0,79,0.00,,OVC033,0.00,181.00,VWS V14.01,2013-02-24 22:23:00,
2013-02-24 15:28:00,32.1,26.3,29.92,NW,317,12.0,17.0,79,0.00,,OVC033,0.00,209.00,VWS V14.01,2013-02-24 22:28:00,
2013-02-24 15:33:00,32.2,26.4,29.92,NNW,335,15.0,16.0,79,0.00,,OVC033,0.00,193.00,VWS V14.01,2013-02-24 22:33:00,
2013-02-24 15:38:00,32.2,26.1,29.92,NNE,20,11.0,16.0,78,0.00,,OVC033,0.00,200.00,VWS V14.01,2013-02-24 22:38:00,
2013-02-24 15:43:00,32.3,26.2,29.92,North,9,13.0,16.0,78,0.00,,OVC033,0.00,199.00,VWS V14.01,2013-02-24 22:43:00,
2013-02-24 15:48:00,32.5,26.4,29.91,WNW,287,10.0,13.0,78,0.00,,OVC033,0.00,176.00,VWS V14.01,2013-02-24 22:48:00,
2013-02-24 15:53:00,32.6,26.2,29.92,NNW,339,10.0,16.0,77,0.00,,OVC033,0.00,185.00,VWS V14.01,2013-02-24 22:53:00,
2013-02-24 15:58:00,32.6,26.2,29.92,NNW,346,9.0,16.0,77,0.01,,OVC033,0.01,174.00,VWS V14.01,2013-02-24 22:58:00,
2013-02-24 16:03:00,32.6,25.9,29.92,NW,326,12.0,17.0,76,0.01,,OVC035,0.01,162.00,VWS V14.01,2013-02-24 23:03:00,
2013-02-24 16:08:00,32.5,25.5,29.92,NNW,331,12.0,19.0,75,0.01,,OVC035,0.01,144.00,VWS V14.01,2013-02-24 23:08:00,
2013-02-24 16:13:00,32.5,25.5,29.93,NNW,331,6.0,19.0,75,0.01,,OVC035,0.01,123.00,VWS V14.01,2013-02-24 23:13:00,
2013-02-24 16:18:00,32.5,25.5,29.93,NNW,346,7.0,14.0,75,0.01,,OVC035,0.01,111.00,VWS V14.01,2013-02-24 23:18:00,
2013-02-24 16:23:00,32.5,25.5,29.93,NNW,333,13.0,14.0,75,0.01,,OVC035,0.01,97.00,VWS V14.01,2013-02-24 23:23:00,
2013-02-24 16:28:00,32.5,25.1,29.93,NW,326,13.0,15.0,74,0.01,,OVC035,0.01,79.00,VWS V14.01,2013-02-24 23:28:00,
2013-02-24 16:33:00,32.4,25.0,29.94,NNW,343,11.0,11.0,74,0.01,,OVC035,0.01,74.00,VWS V14.01,2013-02-24 23:33:00,
2013-02-24 16:38:00,32.4,25.0,29.94,NNW,340,11.0,14.0,74,0.01,,OVC035,0.01,70.00,VWS V14.01,2013-02-24 23:38:00,
2013-02-24 16:43:00,32.4,24.7,29.95,NNW,339,5.0,15.0,73,0.01,,OVC035,0.01,63.00,VWS V14.01,2013-02-24 23:43:00,
2013-02-24 16:48:00,32.3,25.0,29.95,NW,321,9.0,9.0,74,0.01,,OVC035,0.01,54.00,VWS V14.01,2013-02-24 23:48:00,
2013-02-24 16:53:00,32.2,25.2,29.95,NW,325,9.0,13.0,75,0.01,,OVC035,0.01,51.00,VWS V14.01,2013-02-24 23:53:00,
2013-02-24 16:58:00,32.3,25.0,29.95,North,355,10.0,15.0,74,0.01,,OVC035,0.01,49.00,VWS V14.01,2013-02-24 23:58:00,
2013-02-24 17:03:00,32.2,25.2,29.97,West,278,7.0,14.0,75,0.00,,OVC035,0.01,47.00,VWS V14.01,2013-02-25 00:03:00,
2013-02-24 17:08:00,32.1,25.1,29.97,North,355,11.0,17.0,75,0.00,,OVC035,0.01,33.00,VWS V14.01,2013-02-25 00:08:00,
2013-02-24 17:13:00,31.8,25.1,29.97,WNW,302,12.0,17.0,76,0.00,,OVC035,0.01,21.00,VWS V14.01,2013-02-25 00:13:00,
2013-02-24 17:18:00,31.4,24.7,29.98,WNW,300,16.0,19.0,76,0.00,,OVC035,0.01,12.00,VWS V14.01,2013-02-25 00:18:00,
2013-02-24 17:23:00,31.3,24.9,29.98,NW,313,12.0,19.0,77,0.00,,OVC035,0.01,9.00,VWS V14.01,2013-02-25 00:23:00,
2013-02-24 17:28:00,31.2,24.8,29.98,WNW,293,16.0,19.0,77,0.00,,OVC035,0.01,7.00,VWS V14.01,2013-02-25 00:28:00,
2013-02-24 17:33:00,31.2,24.8,29.98,NW,315,13.0,20.0,77,0.00,,OVC035,0.01,0.00,VWS V14.01,2013-02-25 00:33:00,
2013-02-24 17:38:00,31.1,24.8,29.99,NW,319,17.0,20.0,77,0.00,,OVC035,0.01,0.00,VWS V14.01,2013-02-25 00:38:00,
2013-02-24 17:43:00,31.1,24.4,29.99,NW,315,13.0,20.0,76,0.00,,OVC035,0.01,0.00,VWS V14.01,2013-02-25 00:43:00,
2013-02-24 17:48:00,31.0,24.3,29.99,NW,311,13.0,17.0,76,0.00,,OVC035,0.01,0.00,VWS V14.01,2013-02-25 00:48:00,
2013-02-24 17:53:00,31.0,24.3,29.99,NW,319,15.0,19.0,76,0.00,,OVC035,0.01,0.00,VWS V14.01,2013-02-25 00:53:00,
2013-02-24 17:58:00,31.1,24.1,29.99,NW,310,10.0,19.0,75,0.00,,OVC035,0.01,0.00,VWS V14.01,2013-02-25 00:58:00,
2013-02-24 18:03:00,31.0,24.0,30.00,WNW,300,15.0,19.0,75,0.00,,OVC042,0.01,0.00,VWS V14.01,2013-02-25 01:03:00,
2013-02-24 18:09:00,31.1,23.8,30.01,NW,304,12.0,19.0,74,0.00,,OVC042,0.01,0.00,VWS V14.01,2013-02-25 01:09:00,
2013-02-24 18:14:00,31.0,23.7,30.01,NW,309,14.0,19.0,74,0.00,,OVC042,0.01,0.00,VWS V14.01,2013-02-25 01:14:00,
2013-02-24 18:19:00,31.0,23.7,30.01,NW,312,11.0,15.0,74,0.00,,OVC042,0.01,0.00,VWS V14.01,2013-02-25 01:19:00,
2013-02-24 18:24:00,31.0,23.7,30.01,NW,326,11.0,15.0,74,0.00,,OVC042,0.01,0.00,VWS V14.01,2013-02-25 01:24:00,
2013-02-24 18:29:00,30.9,23.6,30.02,NW,322,8.0,15.0,74,0.00,,OVC042,0.01,0.00,VWS V14.01,2013-02-25 01:29:00,
2013-02-24 18:34:00,30.9,23.9,30.02,NNW,342,6.0,11.0,75,0.00,,OVC042,0.01,0.00,VWS V14.01,2013-02-25 01:34:00,
2013-02-24 18:39:00,30.8,23.8,30.02,NNW,348,7.0,12.0,75,0.00,,OVC042,0.01,0.00,VWS V14.01,2013-02-25 01:39:00,
2013-02-24 18:44:00,30.7,24.0,30.03,NNW,336,9.0,12.0,76,0.00,,OVC042,0.01,0.00,VWS V14.01,2013-02-25 01:44:00,
2013-02-24 18:49:00,30.7,24.0,30.03,NNW,329,10.0,10.0,76,0.00,,OVC042,0.01,0.00,VWS V14.01,2013-02-25 01:49:00,
2013-02-24 18:54:00,30.6,24.0,30.03,NW,315,12.0,12.0,76,0.00,,OVC042,0.01,0.00,VWS V14.01,2013-02-25 01:54:00,
2013-02-24 18:59:00,30.5,23.9,30.03,NW,315,11.0,15.0,76,0.00,,OVC042,0.01,0.00,VWS V14.01,2013-02-25 01:59:00,
2013-02-24 19:04:00,30.4,23.8,30.02,NNW,327,12.0,17.0,76,0.00,,OVC039,0.01,0.00,VWS V14.01,2013-02-25 02:04:00,
2013-02-24 19:09:00,30.4,23.8,30.03,NW,324,6.0,17.0,76,0.00,,OVC039,0.01,0.00,VWS V14.01,2013-02-25 02:09:00,
2013-02-24 19:14:00,30.4,23.8,30.03,NNW,346,12.0,17.0,76,0.00,,OVC039,0.01,0.00,VWS V14.01,2013-02-25 02:14:00,
2013-02-24 19:19:00,30.4,23.8,30.03,WNW,299,13.0,15.0,76,0.00,,OVC039,0.01,0.00,VWS V14.01,2013-02-25 02:19:00,
2013-02-24 19:24:00,30.4,23.4,30.04,NW,322,17.0,18.0,75,0.00,,OVC039,0.01,0.00,VWS V14.01,2013-02-25 02:24:00,
2013-02-24 19:29:00,30.5,23.5,30.04,NW,315,10.0,19.0,75,0.00,,OVC039,0.01,0.00,VWS V14.01,2013-02-25 02:29:00,
2013-02-24 19:34:00,30.3,23.0,30.04,WNW,287,13.0,16.0,74,0.00,,OVC039,0.01,0.00,VWS V14.01,2013-02-25 02:34:00,
2013-02-24 19:39:00,30.4,23.1,30.04,WNW,295,16.0,20.0,74,0.00,,OVC039,0.01,0.00,VWS V14.01,2013-02-25 02:39:00,
2013-02-24 19:44:00,30.4,22.8,30.04,NW,309,10.0,20.0,73,0.00,,OVC039,0.01,0.00,VWS V14.01,2013-02-25 02:44:00,
2013-02-24 19:49:00,30.4,22.8,30.04,NW,322,13.0,17.0,73,0.00,,OVC039,0.01,0.00,VWS V14.01,2013-02-25 02:49:00,
2013-02-24 19:54:00,30.3,22.4,30.04,NW,322,13.0,19.0,72,0.00,,OVC039,0.01,0.00,VWS V14.01,2013-02-25 02:54:00,
2013-02-24 19:59:00,30.2,22.6,30.04,NW,308,11.0,19.0,73,0.00,,OVC039,0.01,0.00,VWS V14.01,2013-02-25 02:59:00,
2013-02-24 20:04:00,30.2,22.6,30.05,NW,319,8.0,17.0,73,0.00,,OVC037,0.01,0.00,VWS V14.01,2013-02-25 03:04:00,
2013-02-24 20:09:00,30.2,22.3,30.05,NNW,330,13.0,19.0,72,0.00,,OVC037,0.01,0.00,VWS V14.01,2013-02-25 03:09:00,
2013-02-24 20:14:00,30.2,22.6,30.05,NNW,346,11.0,19.0,73,0.00,,OVC037,0.01,0.00,VWS V14.01,2013-02-25 03:14:00,
2013-02-24 20:19:00,30.1,22.5,30.05,NW,311,14.0,16.0,73,0.00,,OVC037,0.01,0.00,VWS V14.01,2013-02-25 03:19:00,
2013-02-24 20:24:00,30.1,22.5,30.05,WNW,296,16.0,18.0,73,0.00,,OVC037,0.01,0.00,VWS V14.01,2013-02-25 03:24:00,
2013-02-24 20:29:00,30.1,22.5,30.05,WNW,294,14.0,18.0,73,0.00,,OVC037,0.01,0.00,VWS V14.01,2013-02-25 03:29:00,
2013-02-24 20:34:00,30.1,22.5,30.05,NW,319,16.0,18.0,73,0.00,,OVC037,0.01,0.00,VWS V14.01,2013-02-25 03:34:00,
2013-02-24 20:39:00,29.9,22.3,30.05,NW,315,11.0,18.0,73,0.00,,OVC037,0.01,0.00,VWS V14.01,2013-02-25 03:39:00,
2013-02-24 20:45:00,30.0,22.4,30.05,NW,313,5.0,18.0,73,0.00,,OVC037,0.01,0.00,VWS V14.01,2013-02-25 03:45:00,
2013-02-24 20:50:00,30.0,22.4,30.05,WNW,301,12.0,16.0,73,0.00,,OVC037,0.01,0.00,VWS V14.01,2013-02-25 03:50:00,
2013-02-24 20:55:00,29.9,22.3,30.05,NNW,340,11.0,16.0,73,0.00,,OVC037,0.01,0.00,VWS V14.01,2013-02-25 03:55:00,
2013-02-24 21:00:00,29.9,22.3,30.05,NW,326,10.0,17.0,73,0.00,,OVC037,0.01,0.00,VWS V14.01,2013-02-25 04:00:00,
2013-02-24 21:05:00,29.9,22.3,30.05,WNW,298,12.0,15.0,73,0.00,,OVC035,0.01,0.00,VWS V14.01,2013-02-25 04:05:00,
2013-02-24 21:10:00,29.8,22.2,30.05,WNW,301,13.0,15.0,73,0.00,,OVC035,0.01,0.00,VWS V14.01,2013-02-25 04:10:00,
2013-02-24 21:15:00,29.8,22.2,30.05,NW,306,9.0,15.0,73,0.00,,OVC035,0.01,0.00,VWS V14.01,2013-02-25 04:15:00,
2013-02-24 21:20:00,29.7,22.1,30.05,WNW,302,11.0,15.0,73,0.00,,OVC035,0.01,0.00,VWS V14.01,2013-02-25 04:20:00,
2013-02-24 21:25:00,29.7,22.1,30.04,NW,312,9.0,15.0,73,0.00,,OVC035,0.01,0.00,VWS V14.01,2013-02-25 04:25:00,
2013-02-24 21:30:00,29.6,22.4,30.05,NW,306,10.0,15.0,74,0.00,,OVC035,0.01,0.00,VWS V14.01,2013-02-25 04:30:00,
2013-02-24 21:35:00,29.6,22.0,30.04,NW,310,10.0,17.0,73,0.00,,OVC035,0.01,0.00,VWS V14.01,2013-02-25 04:35:00,
2013-02-24 21:40:00,29.6,22.0,30.05,North,5,7.0,17.0,73,0.00,,OVC035,0.01,0.00,VWS V14.01,2013-02-25 04:40:00,
2013-02-24 21:45:00,29.6,22.0,30.05,NNW,332,10.0,17.0,73,0.00,,OVC035,0.01,0.00,VWS V14.01,2013-02-25 04:45:00,
2013-02-24 21:50:00,29.5,21.9,30.05,WNW,298,7.0,11.0,73,0.00,,OVC035,0.01,0.00,VWS V14.01,2013-02-25 04:50:00,
2013-02-24 21:55:00,29.4,22.1,30.06,WNW,292,9.0,12.0,74,0.00,,OVC035,0.01,0.00,VWS V14.01,2013-02-25 04:55:00,
2013-02-24 22:00:00,29.5,22.2,30.05,NW,321,5.0,13.0,74,0.00,,OVC035,0.01,0.00,VWS V14.01,2013-02-25 05:00:00,
2013-02-24 22:01:00,29.5,22.2,30.05,NW,305,9.0,13.0,74,0.00,,OVC042,0.01,0.00,VWS V14.01,2013-02-25 05:01:00,
2013-02-24 22:06:00,29.4,22.1,30.05,NW,325,13.0,13.0,74,0.00,,OVC042,0.01,0.00,VWS V14.01,2013-02-25 05:06:00,
2013-02-24 22:09:00,29.4,22.1,30.05,NW,321,12.0,13.0,74,0.00,,OVC042,0.01,0.00,VWS V14.01,2013-02-25 05:09:00,
2013-02-24 22:14:00,29.5,21.9,30.05,WNW,298,10.0,16.0,73,0.00,,OVC042,0.01,0.00,VWS V14.01,2013-02-25 05:14:00,
2013-02-24 22:19:00,29.5,21.9,30.04,NW,313,12.0,17.0,73,0.00,,OVC042,0.01,0.00,VWS V14.01,2013-02-25 05:19:00,
2013-02-24 22:24:00,29.6,21.7,30.04,NW,312,9.0,17.0,72,0.00,,OVC042,0.01,0.00,VWS V14.01,2013-02-25 05:24:00,
2013-02-24 22:29:00,29.5,21.6,30.04,NNW,334,11.0,17.0,72,0.00,,OVC042,0.01,0.00,VWS V14.01,2013-02-25 05:29:00,
2013-02-24 22:34:00,29.5,21.9,30.04,WNW,294,6.0,11.0,73,0.00,,OVC042,0.01,0.00,VWS V14.01,2013-02-25 05:34:00,
2013-02-24 22:39:00,29.4,21.8,30.04,WNW,300,7.0,13.0,73,0.00,,OVC042,0.01,0.00,VWS V14.01,2013-02-25 05:39:00,
2013-02-24 22:44:00,29.5,21.9,30.04,NNW,344,10.0,13.0,73,0.00,,OVC042,0.01,0.00,VWS V14.01,2013-02-25 05:44:00,
2013-02-24 22:49:00,29.4,21.8,30.04,NW,325,2.0,9.0,73,0.00,,OVC042,0.01,0.00,VWS V14.01,2013-02-25 05:49:00,
2013-02-24 22:54:00,29.3,22.1,30.04,WNW,296,4.0,9.0,74,0.00,,OVC042,0.01,0.00,VWS V14.01,2013-02-25 05:54:00,
2013-02-24 22:59:00,29.3,22.1,30.04,WNW,286,5.0,11.0,74,0.00,,OVC042,0.01,0.00,VWS V14.01,2013-02-25 05:59:00,
2013-02-24 23:05:00,29.2,22.0,30.04,WNW,303,5.0,11.0,74,0.00,,OVC045,0.01,0.00,VWS V14.01,2013-02-25 06:05:00,
2013-02-24 23:10:00,29.2,22.0,30.04,WNW,286,8.0,11.0,74,0.00,,OVC045,0.01,0.00,VWS V14.01,2013-02-25 06:10:00,
2013-02-24 23:15:00,29.1,22.2,30.04,WNW,288,5.0,11.0,75,0.00,,OVC045,0.01,0.00,VWS V14.01,2013-02-25 06:15:00,
2013-02-24 23:20:00,29.0,22.1,30.04,NNW,344,7.0,12.0,75,0.00,,OVC045,0.01,0.00,VWS V14.01,2013-02-25 06:20:00,
2013-02-24 23:25:00,28.9,22.0,30.04,WNW,302,8.0,12.0,75,0.00,,OVC045,0.01,0.00,VWS V14.01,2013-02-25 06:25:00,
2013-02-24 23:30:00,28.9,22.0,30.03,WNW,302,7.0,12.0,75,0.00,,OVC045,0.01,0.00,VWS V14.01,2013-02-25 06:30:00,
2013-02-24 23:35:00,28.7,21.8,30.03,West,278,6.0,10.0,75,0.00,,OVC045,0.01,0.00,VWS V14.01,2013-02-25 06:35:00,
2013-02-24 23:40:00,28.6,21.7,30.03,NW,313,7.0,12.0,75,0.00,,OVC045,0.01,0.00,VWS V14.01,2013-02-25 06:40:00,
2013-02-24 23:45:00,28.4,21.5,30.03,WNW,286,9.0,12.0,75,0.00,,OVC045,0.01,0.00,VWS V14.01,2013-02-25 06:45:00,
2013-02-24 23:50:00,28.3,21.4,30.03,WNW,302,9.0,13.0,75,0.00,,OVC045,0.01,0.00,VWS V14.01,2013-02-25 06:50:00,
2013-02-24 23:55:00,28.2,21.3,30.04,WNW,303,8.0,13.0,75,0.00,,OVC045,0.01,0.00,VWS V14.01,2013-02-25 06:55:00,